Volver al catálogo

CZ-6A DEB

ActivoPO
NORAD 61334·DEBRIS·🇨🇳 China

Lanzado Aug 6, 2024 desde Taiyuan Satellite Launch Center

Loading…

Próximos Pases (próximas 24 horas)

TLE

ActualizadoSource: Space-Track

Época: Sep 13, 2026, 23:35 UTC

1 61334U 24140UX  26256.98324742  .00000738  00000-0  33491-3 0  9999
2 61334  89.0021 265.3099 0047279 269.6171  89.9602 14.20304746105083

Sigue CZ-6A DEB en tiempo real con AllMySat

Download on the App Store